Weather History for Monett, MO

Change the Weather History Date:

Sunday, January 26, 2014

  Actual Average (KJLN) Record (KJLN)
Temperature  
Mean Temperature 47 °F 36 °F  
Max Temperature 62 °F 46 °F 67 °F (1953)
Min Temperature 32 °F 25 °F 3 °F (1963)
Degree Days  
Heating Degree Days 18 30  
Month to date heating degree days 780  
Since 1 July heating degree days 2397  
Cooling Degree Days 0 0  
Month to date cooling degree days 0  
Year to date cooling degree days 0  
Moisture  
Dew Point 29 °F    
Average Humidity 55    
Maximum Humidity 87    
Minimum Humidity 31    
Precipitation  
Precipitation 0.00 in 0.06 in 1.33 in (1967)
Month to date precipitation 1.70  
Year to date precipitation 1.70  
Sea Level Pressure  
Sea Level Pressure 29.77 in    
Wind  
Wind Speed 11 mph (WSW)    
Max Wind Speed 29 mph    
Max Gust Speed 47 mph    
Visibility 10 miles    
Events      
T = Trace of Precipitation, MM = Missing Value Source: NWS Daily Summary

Daily Weather History Graph

Daily Weather History Graph

Search for Another Location

Airport:

Trip Planner

Search our weather history database for the weather conditions in past years. The results will help you decide how hot, cold, wet, or windy it might be!

Date:

Astronomy

Jan. 26, 2014 Rise Set
Actual Time 7:22 AM CST 5:34 PM CST
Civil Twilight 6:55 AM CST 6:02 PM CST
Nautical Twilight 6:23 AM CST 6:33 PM CST
Astronomical Twilight 5:53 AM CST 7:04 PM CST
Moon 3:00 AM CST (1/26) 1:25 PM CST (1/26)
Length of Visible Light 11h 07m
Length of Day
10h 12m
Waning Crescent, 23% of the Moon is Illuminated
Jan 26
Waning Crescent
Jan 30
New
Feb 6
First Quarter
Feb 14
Full
Feb 22
Last Quarter

Hourly Weather History & Observations

Time (CST) Temp. Windchill Dew Point Humidity Pressure Visibility Wind Dir Wind Speed Gust Speed Precip Events Conditions
12:15 AM 32.0 °F 24.8 °F 28.4 °F 87% 29.88 in 10.0 mi South 8.1 mph - N/A   Clear
12:35 AM 33.8 °F 26.4 °F 28.4 °F 81% 29.87 in 10.0 mi South 9.2 mph - N/A   Clear
12:55 AM 33.8 °F 26.4 °F 28.4 °F 81% 29.86 in 10.0 mi South 9.2 mph - N/A   Clear
1:15 AM 33.8 °F 25.8 °F 30.2 °F 87% 29.83 in 10.0 mi South 10.4 mph - N/A   Clear
1:35 AM 35.6 °F 28.6 °F 30.2 °F 81% 29.82 in 10.0 mi South 9.2 mph - N/A   Clear
1:55 AM 35.6 °F 28.6 °F 30.2 °F 81% 29.80 in 10.0 mi South 9.2 mph - N/A   Clear
2:15 AM 35.6 °F 28.6 °F 30.2 °F 81% 29.80 in 10.0 mi South 9.2 mph - N/A   Clear
2:35 AM 35.6 °F 28.6 °F 30.2 °F 81% 29.79 in 10.0 mi South 9.2 mph - N/A   Clear
2:55 AM 37.4 °F 30.8 °F 30.2 °F 75% 29.79 in 10.0 mi SSW 9.2 mph - N/A   Clear
3:15 AM 37.4 °F 29.3 °F 30.2 °F 75% 29.79 in 10.0 mi SSW 12.7 mph - N/A   Clear
3:35 AM 37.4 °F 29.8 °F 30.2 °F 75% 29.79 in 10.0 mi SSW 11.5 mph - N/A   Clear
3:55 AM 37.4 °F 29.3 °F 30.2 °F 75% 29.78 in 10.0 mi SSW 12.7 mph - N/A   Clear
4:15 AM 37.4 °F 30.3 °F 30.2 °F 75% 29.78 in 10.0 mi SSW 10.4 mph 17.3 mph N/A   Clear
4:35 AM 37.4 °F 29.8 °F 30.2 °F 75% 29.77 in 10.0 mi SSW 11.5 mph - N/A   Clear
4:55 AM 37.4 °F 30.3 °F 30.2 °F 75% 29.77 in 10.0 mi SSW 10.4 mph - N/A   Clear
5:15 AM 35.6 °F 28.6 °F 30.2 °F 81% 29.77 in 10.0 mi SSW 9.2 mph - N/A   Clear
5:35 AM 35.6 °F 28.0 °F 30.2 °F 81% 29.76 in 10.0 mi SSW 10.4 mph - N/A   Clear
5:55 AM 37.4 °F 29.3 °F 30.2 °F 75% 29.76 in 10.0 mi SSW 12.7 mph - N/A   Clear
6:15 AM 37.4 °F 29.3 °F 30.2 °F 75% 29.76 in 10.0 mi SSW 12.7 mph - N/A   Clear
6:35 AM 37.4 °F 29.8 °F 30.2 °F 75% 29.76 in 10.0 mi SSW 11.5 mph - N/A   Clear
6:55 AM 37.4 °F 29.8 °F 30.2 °F 75% 29.76 in 10.0 mi SSW 11.5 mph - N/A   Clear
7:15 AM 37.4 °F 29.8 °F 30.2 °F 75% 29.75 in 10.0 mi SSW 11.5 mph - N/A   Clear
7:35 AM 39.2 °F 31.2 °F 32.0 °F 75% 29.75 in 10.0 mi SSW 13.8 mph - N/A   Clear
7:55 AM 41.0 °F 33.9 °F 32.0 °F 70% 29.75 in 10.0 mi SSW 12.7 mph - N/A   Clear
8:15 AM 42.8 °F 35.8 °F 32.0 °F 66% 29.75 in 10.0 mi SSW 13.8 mph - N/A   Clear
8:35 AM 44.6 °F 38.1 °F 32.0 °F 61% 29.75 in 10.0 mi SW 13.8 mph - N/A   Clear
8:55 AM 44.6 °F 38.1 °F 32.0 °F 61% 29.75 in 10.0 mi SW 13.8 mph - N/A   Clear
9:15 AM 46.4 °F 40.7 °F 32.0 °F 57% 29.75 in 10.0 mi SW 12.7 mph - N/A   Clear
9:35 AM 50.0 °F - 32.0 °F 50% 29.75 in 10.0 mi SW 13.8 mph - N/A   Clear
9:55 AM 51.8 °F - 32.0 °F 47% 29.76 in 10.0 mi WSW 11.5 mph 19.6 mph N/A   Clear
10:15 AM 53.6 °F - 32.0 °F 44% 29.76 in 10.0 mi WSW 9.2 mph - N/A   Clear
10:35 AM 55.4 °F - 32.0 °F 41% 29.76 in 10.0 mi West 12.7 mph 23.0 mph N/A   Clear
10:55 AM 55.4 °F - 32.0 °F 41% 29.76 in 10.0 mi WSW 12.7 mph 19.6 mph N/A   Clear
11:15 AM 55.4 °F - 32.0 °F 41% 29.76 in 10.0 mi SW 12.7 mph - N/A   Clear
11:35 AM 57.2 °F - 32.0 °F 38% 29.74 in 10.0 mi WSW 12.7 mph 17.3 mph N/A   Clear
11:55 AM 59.0 °F - 32.0 °F 36% 29.73 in 10.0 mi WSW 15.0 mph - N/A   Clear
12:15 PM 60.8 °F - 32.0 °F 34% 29.72 in 10.0 mi WSW 13.8 mph 17.3 mph N/A   Clear
12:35 PM 60.8 °F - 32.0 °F 34% 29.71 in 10.0 mi West 18.4 mph 21.9 mph N/A   Clear
12:55 PM 60.8 °F - 32.0 °F 34% 29.69 in 10.0 mi West 13.8 mph 18.4 mph N/A   Clear
1:15 PM 62.6 °F - 32.0 °F 32% 29.68 in 10.0 mi WSW 16.1 mph 23.0 mph N/A   Clear
1:35 PM 60.8 °F - 32.0 °F 34% 29.68 in 10.0 mi West 15.0 mph 20.7 mph N/A   Clear
1:55 PM 60.8 °F - 30.2 °F 31% 29.67 in 10.0 mi West 19.6 mph - N/A   Clear
2:15 PM 62.6 °F - 32.0 °F 32% 29.67 in 10.0 mi West 15.0 mph - N/A   Clear
2:35 PM 60.8 °F - 30.2 °F 31% 29.66 in 10.0 mi WSW 12.7 mph 23.0 mph N/A   Clear
2:55 PM 60.8 °F - 30.2 °F 31% 29.66 in 10.0 mi West 15.0 mph 21.9 mph N/A   Clear
3:15 PM 60.8 °F - 32.0 °F 34% 29.66 in 10.0 mi West 16.1 mph - N/A   Clear
3:35 PM 60.8 °F - 32.0 °F 34% 29.67 in 10.0 mi NW 15.0 mph - N/A   Clear
3:55 PM 59.0 °F - 32.0 °F 36% 29.67 in 10.0 mi NW 10.4 mph - N/A   Clear
4:15 PM 59.0 °F - 32.0 °F 36% 29.68 in 10.0 mi NW 11.5 mph 17.3 mph N/A   Clear
4:35 PM 57.2 °F - 32.0 °F 38% 29.69 in 10.0 mi NW 8.1 mph - N/A   Clear
4:55 PM 55.4 °F - 32.0 °F 41% 29.69 in 10.0 mi NW 8.1 mph - N/A   Clear
5:15 PM 53.6 °F - 30.2 °F 41% 29.69 in 10.0 mi NW 4.6 mph - N/A   Clear
5:35 PM 51.8 °F - 30.2 °F 44% 29.70 in 10.0 mi WNW 4.6 mph - N/A   Clear
5:55 PM 51.8 °F - 30.2 °F 44% 29.70 in 10.0 mi WNW 3.5 mph - N/A   Clear
6:15 PM 51.8 °F - 30.2 °F 44% 29.71 in 10.0 mi WNW 3.5 mph - N/A   Clear
6:35 PM 50.0 °F - 30.2 °F 47% 29.71 in 10.0 mi Calm Calm - N/A   Clear
6:55 PM 50.0 °F - 30.2 °F 47% 29.73 in 10.0 mi WNW 4.6 mph - N/A   Clear
7:15 PM 48.2 °F - 30.2 °F 50% 29.75 in 10.0 mi NW 6.9 mph - N/A   Clear
7:35 PM 46.4 °F 42.9 °F 28.4 °F 50% 29.77 in 10.0 mi NW 6.9 mph - N/A   Clear
7:55 PM 44.6 °F 40.2 °F 28.4 °F 53% 29.78 in 10.0 mi NNW 8.1 mph - N/A   Clear
8:15 PM 44.6 °F 41.4 °F 26.6 °F 49% 29.79 in 10.0 mi NNW 5.8 mph - N/A   Clear
8:35 PM 42.8 °F 39.3 °F 26.6 °F 53% 29.80 in 10.0 mi NNW 5.8 mph - N/A   Clear
8:55 PM 44.6 °F 42.2 °F 26.6 °F 49% 29.81 in 10.0 mi NNW 4.6 mph - N/A   Clear
9:15 PM 42.8 °F 40.1 °F 26.6 °F 53% 29.82 in 10.0 mi NW 4.6 mph - N/A   Clear
9:35 PM 44.6 °F 41.4 °F 26.6 °F 49% 29.83 in 10.0 mi NW 5.8 mph - N/A   Clear
9:55 PM 41.0 °F 30.0 °F 26.6 °F 57% 29.90 in 10.0 mi NNW 28.8 mph 47.2 mph N/A   Scattered Clouds
10:15 PM 37.4 °F 26.6 °F 26.6 °F 65% 29.93 in 10.0 mi North 21.9 mph 34.5 mph N/A   Scattered Clouds
10:35 PM 37.4 °F 26.6 °F 21.2 °F 52% 29.95 in 10.0 mi North 21.9 mph 38.0 mph N/A   Clear
10:55 PM 33.8 °F 21.9 °F 19.4 °F 56% 29.98 in 10.0 mi North 21.9 mph 31.1 mph N/A   Clear
11:15 PM 32.0 °F 19.2 °F 12.2 °F 44% 30.00 in 10.0 mi North 23.0 mph 33.4 mph N/A   Clear
11:35 PM 32.0 °F 20.5 °F 12.2 °F 44% 30.02 in 10.0 mi North 18.4 mph 25.3 mph N/A   Clear
11:55 PM 32.0 °F 18.9 °F 5.0 °F 32% 30.03 in 10.0 mi North 24.2 mph 38.0 mph N/A   Clear